Weather Roundup
Issued by NWS

Home | Current Version | Previous Version | Text Only | Print | Product List | Glossary On
Versions: 1 2 3 4 5 6 7 8 9 10 11 12 13 14 15 16 17 18 19 20 21 22 23 24 25 26 27 28 29 30 31 32 33 34 35 36 37 38 39 40 41 42 43 44 45 46 47 48 49 50
000
NZUS93 KARX 201859
HRRWXR

CURRENT HOURLY OBSERVATIONS ACROSS
MUCH OF THE UPPER MISSISSIPPI VALLEY
NATIONAL WEATHER SERVICE LA CROSSE WI
100 PM CST SAT DEC 20 2014


...SOUTHEAST MINNESOTA...


CITY           SKY/WX    TMP DP  RH WIND       PRES   REMARKS
ROCHESTER      FOG       30  28  92 S10       30.14F VSB 3/4 WCI  21
ROCHESTER/MAYO CLOUDY    31  29  95 SE7       30.14F WCI  24
WINONA         CLOUDY    34  28  80 CALM      30.19S HAZE
AUSTIN         CLOUDY    30  28  93 S6        30.12F FOG     WCI  24
ALBERT LEA     CLOUDY    30  30 100 S8        30.12F FOG     WCI  23
DODGE CENTER   CLOUDY    30  30 100 S12       30.12F FOG     WCI  21
PRESTON        FOG       29  28  97 S9        30.15F VSB 1   WCI  20
OWATONNA       CLOUDY    30  27  86 S9        30.12F WCI  22
FARIBAULT      CLOUDY    30  28  93 S10       30.13F WCI  21
$$

...ELSEWHERE IN MINNESOTA...


CITY           SKY/WX    TMP DP  RH WIND       PRES   REMARKS
MINNEAPOLIS    CLOUDY    32  26  78 S10       30.13F WCI  24
INTNL FALLS    CLOUDY    29  27  92 S5        30.01F FOG     WCI  24
DULUTH         CLOUDY    29  25  85 S10       30.07F FOG     WCI  20
RED WING       CLOUDY    32  28  86 S5        30.15F FOG     WCI  27
REDWOOD FALLS  CLOUDY    32  28  85 S14       30.07F WCI  22
MANKATO        CLOUDY    30  23  74 S10       30.12F WCI  21
WORTHINGTON    CLOUDY    30  28  93 S13       30.06F WCI  20
FAIRMONT       CLOUDY    30  27  86 S8        30.10F WCI  23
$$

...SOUTHWEST WISCONSIN...


CITY           SKY/WX    TMP DP  RH WIND       PRES   REMARKS
LA CROSSE      CLOUDY    33  26  75 S5        30.19F WCI  29
PRAIRIE DU CHI MIX PCPN  31  26  81 SE3       30.21F
BOSCOBEL       CLOUDY    32  26  78 CALM      30.22F HAZE
LONE ROCK      NOT AVBL
PLATTEVILLE    CLOUDY    31  27  84 CALM      30.21F
FORT MC COY    CLOUDY    31  26  80 S3        30.20F HAZE
VIROQUA        CLOUDY    29  29 100 SE7       30.17F WCI  22
WIS DELLS      NOT AVBL
$$

...ELSEWHERE IN WISCONSIN...


CITY           SKY/WX    TMP DP  RH WIND       PRES   REMARKS
MILWAUKEE      CLOUDY    31  20  63 W3        30.24F
MADISON        FLURRIES  30  24  78 S6        30.21F WCI  24
GREEN BAY      CLOUDY    30  23  75 CALM      30.23F
EAU CLAIRE     NOT AVBL
BLACK RVR FLS  CLOUDY    32  26  77 S6        30.18F WCI  26
MEDFORD        CLOUDY    27  24  89 SE7       30.15F FOG     WCI  19
WAUSAU         CLOUDY    28  24  85 S5        30.17F FOG     WCI  23
WIS RAPIDS     CLOUDY    30  23  75 S6        30.21F WCI  24
MARSHFIELD     CLOUDY    30  25  81 S7        30.17F HAZE    WCI  23
RICE LAKE      CLOUDY    31  26  81 SE9       30.15F WCI  23
$$

...NORTHEAST IOWA...


CITY           SKY/WX    TMP DP  RH WIND       PRES   REMARKS
DECORAH        CLOUDY    30  28  93 VRB6G13   30.17S FOG     WCI  24
MASON CITY     CLOUDY    30  28  92 S9        30.14F WCI  22
CHARLES CITY   CLOUDY    32  32 100 S7        30.15F FOG     WCI  26
OELWEIN        CLOUDY    32  30  93 SE10      30.17F FOG     WCI  24
$$

...ELSEWHERE IN IOWA...


CITY           SKY/WX    TMP DP  RH WIND       PRES   REMARKS
DES MOINES     CLOUDY    34  31  88 SE7       30.14F FOG     WCI  28
IOWA CITY      CLOUDY    33  29  85 SE8       30.21F FOG     WCI  26
FORT DODGE     CLOUDY    32  28  86 S8        30.12S WCI  25
$$

...NORTHERN ILLINOIS...


CITY           SKY/WX    TMP DP  RH WIND       PRES   REMARKS
CHICAGO-OHARE  CLOUDY    32  23  69 W8        30.24F WCI  25
CHICAGO-MIDWAY FLURRIES  34  26  72 SW8       30.25F WCI  27
MOLINE         CLOUDY    34  26  72 SE7       30.22F WCI  28
ROCKFORD       LGT SNOW  30  26  85 S9        30.26F FOG     WCI  22
PEORIA         CLOUDY    36  26  67 S7        30.24F WCI  30
$$

NOTE: "FAIR" INDICATES FEW OR NO CLOUDS BELOW 12,000 FEET WITH NO
SIGNIFICANT WEATHER AND/OR OBSTRUCTIONS TO VISIBILITY. WIND
SPEEDS ARE IN MILES-PER-HOUR.



USA.gov is the U.S. government's official web portal to all federal, state and local government web resources and services.